Theta_e
297 297 296 298 297 298 295 288 279 295 298 281 282 278 280 283 285 289 287 287 286 285 287 286 287 287 291 297 297 290 295 292 282 284 292 293 291 289 289 285 284 286 286 287
297 297 298 298 298 298 292 283 283 296 293 275 276 281 281 282 283 285 284 283 287 288 285 283 288 290 295 297 295 292 295 286 283 280 285 290 286 290 291 291 291 284 283 286
297 297 297 298 298 298 292 284 279 284 286 285 280 279 278 279 285 283 286 285 287 285 284 286 284 287 293 296 295 297 296 289 285 282 285 288 283 286 290 289 285 286 286 289
297 297 297 297 298 298 292 284 280 284 277 278 280 281 280 277 277 283 284 283 283 283 280 282 283 287 288 294 296 295 293 284 286 288 290 291 288 285 287 286 288 286 290 288
297 297 296 297 297 297 290 283 280 283 281 282 280 281 278 278 280 280 279 278 280 283 279 283 282 285 287 287 293 292 293 285 287 284 288 289 286 288 286 286 287 288 290 288
297 297 297 297 298 297 285 288 289 284 281 280 278 278 279 279 281 282 283 282 280 281 283 287 288 290 291 290 288 289 289 285 284 281 286 285 280 286 287 287 289 290 286 292
297 297 297 296 297 297 291 289 288 281 277 279 279 280 281 280 281 280 283 284 281 284 290 290 291 289 288 288 288 289 286 286 286 282 283 275 286 294 293 289 290 292 293 295
296 296 297 296 297 297 292 291 287 283 277 280 280 281 281 282 283 282 283 285 287 288 286 280 280 280 281 282 286 286 287 283 282 279 279 283 287 290 290 289 288 294 293 295
293 296 297 297 297 297 295 291 292 287 280 279 283 280 281 278 279 281 283 288 291 288 282 277 275 273 276 276 280 287 286 285 280 281 277 275 285 293 297 295 285 296 295 295
296 296 296 297 297 297 294 291 293 287 280 284 284 280 281 283 282 280 282 284 284 287 280 276 275 276 281 275 275 278 279 280 277 278 277 283 291 295 298 284 286 298 299 298
297 296 297 297 297 297 295 290 293 289 283 284 285 286 283 284 284 280 284 282 282 282 277 276 277 276 280 279 281 280 280 278 278 280 277 276 294 294 289 294 298 299 300 300
297 296 297 297 297 297 296 287 292 294 285 285 289 289 291 289 289 286 286 283 283 284 281 281 281 278 280 279 276 285 278 282 281 281 283 287 290 291 295 300 298 299 297 301
296 297 296 296 296 296 296 291 290 289 284 285 285 284 289 292 291 294 284 287 288 287 290 286 284 278 282 277 279 281 284 286 281 282 284 285 289 292 294 294 296 297 298 299
295 296 296 296 296 296 295 290 291 288 286 279 283 288 286 292 292 291 291 289 290 290 290 285 282 279 285 281 282 281 284 285 283 283 284 287 289 291 292 292 294 294 295 296
295 295 295 295 295 296 294 294 292 293 286 279 281 284 287 290 291 290 290 289 287 288 284 283 280 285 284 285 284 281 285 284 283 282 286 286 286 290 292 291 291 293 293 293
295 295 295 295 295 295 288 283 289 292 291 282 277 284 282 287 289 288 288 288 288 288 285 284 287 284 284 280 279 284 286 287 288 286 288 288 288 289 291 290 291 292 293 294
294 295 295 295 295 293 285 284 289 293 291 282 278 278 281 285 287 287 288 287 286 288 285 283 283 284 284 281 277 283 286 287 288 289 289 286 287 288 289 288 289 286 286 288
294 294 293 293 294 292 287 292 293 293 286 284 277 276 278 285 281 280 286 284 283 284 284 284 282 284 283 277 282 284 286 286 287 288 290 289 287 286 285 283 285 285 286 286
293 294 292 289 286 285 287 294 293 290 286 279 278 275 274 284 282 284 283 285 278 284 280 281 283 280 277 281 283 284 285 285 286 288 287 287 285 286 285 285 282 283 284 284
291 288 285 281 285 294 291 285 283 284 283 281 279 280 277 281 281 279 281 282 278 275 280 284 278 278 282 284 285 283 284 285 284 280 282 282 284 285 283 284 284 285 283 281
285 283 281 284 290 285 282 279 278 278 276 278 279 279 277 283 278 278 282 278 278 272 277 277 276 276 280 278 278 275 274 275 276 277 278 280 283 284 282 283 283 283 281 281
286 285 286 285 282 278 275 272 273 275 274 274 276 277 280 279 283 279 277 276 277 272 280 276 273 278 265 264 266 267 268 269 270 272 274 276 279 283 284 284 283 281 280 276
286 283 279 279 275 272 271 268 270 270 272 274 275 275 279 278 279 278 275 273 273 276 274 273 275 262 261 259 260 262 264 266 268 269 273 275 279 283 284 282 281 277 277 277
278 276 270 272 271 272 270 269 270 267 269 272 274 275 276 277 275 276 272 272 271 270 270 272 263 257 256 257 260 261 262 265 268 271 273 276 279 281 281 278 277 277 276 277
272 273 270 268 263 263 263 263 265 265 265 268 272 272 274 272 271 270 269 266 267 270 269 261 258 256 256 257 258 259 261 265 269 271 273 274 275 275 275 277 278 278 277 275
267 263 265 263 265 264 263 262 264 263 263 266 268 272 270 270 269 266 268 268 268 260 256 256 257 256 256 256 257 259 261 265 269 271 272 274 274 274 275 275 275 276 276 274
263 259 258 259 260 260 259 258 259 261 262 270 269 271 268 264 265 263 255 257 254 254 255 256 256 255 255 256 258 260 262 266 268 270 271 271 272 273 272 271 272 273 272 271
Wind_Speed
24 20 19 27 22 26 22 12 14 10 14 16 8 17 13 15 29 29 14 13 21 32 28 26 30 28 25 16 26 27 25 9 8 17 6 16 24 21 23 10 7 11 8 16
24 26 26 24 27 29 9 11 13 10 15 19 18 17 14 23 13 31 18 19 18 21 30 23 26 30 22 19 22 20 20 6 9 5 5 13 13 22 21 18 1 11 8 14
23 23 21 24 23 22 12 8 7 6 9 8 24 21 22 20 23 20 30 15 23 25 20 23 19 24 22 18 17 22 14 15 23 20 25 12 12 21 24 21 11 19 18 27
24 22 18 17 20 23 11 6 7 5 10 16 23 28 21 29 19 25 19 18 27 21 19 22 23 26 20 22 22 22 18 12 23 27 24 17 20 21 23 21 29 17 26 24
24 22 19 19 20 15 7 4 4 4 3 14 20 24 23 26 17 25 23 28 24 24 24 26 19 25 25 20 22 23 21 7 15 25 19 21 12 23 23 24 28 22 20 20
25 24 23 21 23 17 4 4 2 4 8 17 16 19 26 27 26 23 24 23 24 30 31 25 24 25 22 20 19 20 23 8 10 21 23 17 16 17 27 26 23 28 21 32
21 27 26 23 24 23 5 3 3 6 11 13 18 23 26 29 29 27 23 27 25 28 11 18 25 24 12 13 14 8 14 23 12 12 14 30 16 25 22 27 24 27 27 30
27 28 29 25 25 27 7 5 4 5 5 18 23 23 23 26 26 25 28 23 23 25 23 8 18 22 25 18 10 14 10 3 14 18 23 22 21 21 28 25 30 31 29 32
23 31 29 28 27 28 11 7 8 3 5 8 18 21 27 19 17 20 23 21 14 14 9 11 22 19 20 20 8 19 14 13 9 9 23 33 27 25 26 26 26 19 25 32
31 30 31 31 28 27 11 5 12 3 5 5 10 13 13 21 17 20 20 23 10 13 9 14 9 14 14 19 26 13 18 17 19 14 6 6 7 21 22 30 16 27 29 30
36 35 34 32 29 29 14 4 12 6 5 8 6 11 12 3 10 5 10 10 6 7 9 7 6 5 6 11 9 13 13 12 16 10 11 13 2 3 20 16 23 18 25 29
35 36 34 32 30 28 24 3 9 8 5 4 4 12 12 13 13 5 10 7 12 8 8 5 4 5 4 5 8 7 13 7 3 8 4 13 15 13 17 13 27 16 6 6
25 36 34 31 28 27 21 6 6 5 4 5 5 10 12 7 6 4 4 4 7 6 4 3 2 5 6 7 9 9 3 5 4 3 4 3 16 17 17 17 16 15 4 6
23 28 28 26 25 26 20 6 7 6 3 6 4 2 5 3 5 6 3 2 3 1 2 2 3 4 6 7 2 7 1 8 6 5 2 2 13 12 10 16 17 12 11 9
18 22 23 22 22 23 12 6 7 8 4 3 1 1 4 2 6 7 4 3 3 1 2 3 5 3 3 5 6 6 7 7 7 5 7 1 6 10 12 18 18 15 10 9
16 18 18 19 21 23 5 5 6 12 5 2 4 2 1 3 7 11 10 8 5 3 3 4 3 2 3 4 7 8 11 8 11 7 9 11 6 3 11 17 15 13 7 4
15 14 14 14 19 9 5 3 4 20 6 4 3 4 0 1 2 1 1 2 1 3 2 4 3 3 5 5 9 8 12 13 12 11 7 4 8 8 9 10 9 1 3 4
14 13 12 10 15 13 8 2 14 16 4 2 2 4 4 7 5 5 3 4 3 3 4 1 6 2 4 6 14 16 10 7 7 13 16 7 4 4 1 2 1 5 8 9
11 19 15 7 1 2 3 15 18 3 1 4 3 6 4 5 3 3 4 3 6 2 7 6 6 5 7 8 17 11 15 10 10 11 13 9 6 4 3 3 3 5 7 11
15 5 3 3 1 26 12 3 3 3 3 2 3 1 4 7 6 6 6 5 5 6 8 4 6 9 11 7 9 5 3 5 5 5 8 9 10 7 4 7 7 7 9 12
2 3 3 2 8 2 1 3 3 3 4 4 2 3 6 3 6 5 5 4 5 5 6 7 7 8 17 3 3 3 5 7 7 7 6 4 3 8 9 7 7 6 9 12
2 5 4 2 2 2 2 3 2 4 3 3 3 3 2 3 1 3 3 4 5 7 6 6 6 9 6 6 4 5 7 7 8 10 10 5 2 3 7 10 11 10 11 15
1 3 3 2 2 2 3 5 2 2 2 2 3 4 3 2 2 2 3 5 6 2 6 5 2 4 7 8 9 9 8 7 9 13 8 6 8 8 9 10 11 15 15 15
3 2 2 0 3 0 2 2 3 3 3 2 1 3 2 1 5 2 5 1 1 5 7 8 4 6 9 10 10 10 11 11 9 10 8 4 2 6 9 10 13 16 16 17
3 2 1 1 3 3 2 1 0 3 4 3 1 1 2 2 3 3 2 4 7 6 3 4 5 9 9 10 10 11 10 10 9 6 4 2 6 7 9 10 12 15 16 17
4 6 3 2 1 3 2 2 3 5 5 3 2 2 3 4 1 3 5 4 3 2 5 7 8 8 9 10 9 10 11 11 7 2 2 5 6 9 11 11 12 15 17 16
4 4 3 3 3 4 3 3 4 5 4 1 2 4 2 2 3 3 2 3 4 7 7 7 9 10 10 9 10 8 10 5 1 4 6 8 9 11 13 14 12 16 18 17
Wind_Direction
266 266 249 250 241 237 240 234 237 209 184 219 227 227 214 258 254 231 243 278 238 230 225 209 222 218 213 206 206 199 217 224 174 201 187 236 213 210 195 194 178 232 262 260
269 260 260 242 250 238 213 226 222 204 182 221 229 235 246 229 260 241 233 235 243 232 241 242 221 225 222 225 201 199 195 203 196 156 276 232 230 224 212 230 198 201 190 260
270 275 257 247 236 231 199 180 210 192 205 210 220 231 229 237 216 254 247 238 238 241 240 250 244 236 223 241 224 196 200 217 221 217 216 150 203 206 218 214 213 220 216 249
265 268 266 250 235 220 207 212 206 197 200 212 217 224 230 223 230 219 235 246 234 239 233 236 243 242 251 226 216 215 201 223 222 237 245 204 200 200 209 211 221 209 228 235
257 261 261 248 237 222 216 255 181 190 209 220 208 213 220 225 246 224 234 230 259 249 254 229 229 234 236 237 218 220 216 220 219 235 238 249 259 202 200 212 223 224 239 263
259 251 256 242 234 210 222 182 228 244 214 222 212 226 222 228 233 232 228 237 237 244 230 251 235 249 256 248 242 228 222 215 217 222 225 228 232 220 200 214 221 214 216 237
266 260 250 242 229 210 192 168 170 206 234 223 221 225 220 229 233 233 231 227 226 239 297 276 256 234 241 255 260 229 242 229 218 239 228 230 222 221 218 216 221 223 233 240
263 257 252 240 228 216 201 153 174 213 238 225 229 224 225 226 238 237 239 228 222 228 222 259 232 229 238 229 219 210 192 250 230 221 233 244 221 217 205 200 225 220 226 243
251 251 246 234 228 215 202 194 193 216 274 226 235 235 228 235 235 240 239 229 215 170 189 214 247 203 221 222 202 208 209 221 236 206 229 232 228 222 203 206 235 213 219 238
268 252 240 230 225 210 195 173 181 188 253 248 238 219 234 224 232 237 222 200 178 171 179 208 245 210 179 218 216 204 204 212 226 237 260 238 190 226 200 203 210 216 219 229
255 239 226 220 215 206 189 147 187 181 241 249 245 261 248 237 227 156 132 147 179 175 198 211 201 264 218 195 208 192 197 202 211 211 233 234 242 189 196 209 228 229 223 234
237 214 210 204 208 202 194 144 183 203 235 296 261 258 238 271 220 166 167 190 159 160 185 197 196 190 208 203 200 196 212 216 223 213 232 328 310 304 303 217 225 232 250 248
194 184 194 193 198 196 192 155 150 176 229 248 250 235 240 238 256 274 168 180 180 162 198 159 184 227 171 210 218 187 182 135 215 146 192 254 313 312 304 316 318 325 249 230
156 172 181 188 190 192 186 168 162 177 216 232 219 60 230 279 235 236 331 194 134 179 179 190 206 221 206 208 180 207 62 156 179 247 286 236 249 279 340 329 311 300 297 255
166 168 179 187 187 190 160 166 176 196 223 227 205 271 218 214 218 211 198 177 199 179 175 195 217 212 228 233 207 196 192 169 181 216 151 66 303 286 306 305 292 285 284 273
178 180 184 190 185 173 126 166 195 194 173 198 210 52 294 136 206 219 219 215 219 207 195 218 205 167 228 229 225 230 201 197 208 214 189 201 219 244 274 276 278 264 238 273
188 174 172 180 185 170 189 206 154 173 137 172 203 168 92 145 117 111 190 283 217 230 211 225 238 223 186 249 244 220 206 203 204 212 136 180 183 214 222 253 279 193 112 109
156 175 193 200 193 172 196 292 165 148 126 233 181 115 164 185 176 182 167 178 178 216 228 229 225 188 210 242 245 241 241 211 197 212 210 211 123 131 108 79 188 219 147 134
162 123 115 143 37 92 96 142 137 60 136 180 200 167 162 164 165 135 180 183 199 172 217 219 182 221 216 217 234 236 232 204 209 213 218 220 234 183 186 129 255 158 166 136
86 57 93 114 205 112 112 93 131 149 149 163 222 65 145 189 162 184 162 182 218 206 214 134 218 238 239 223 236 301 300 244 142 169 221 215 227 203 169 205 234 204 176 128
31 92 63 46 73 92 224 136 168 142 184 180 145 226 146 203 185 170 204 183 183 227 189 203 203 222 227 182 172 26 343 330 313 309 299 345 97 158 165 163 197 188 132 142
103 97 80 65 34 118 104 70 125 207 178 156 187 150 79 142 162 196 188 214 188 235 138 201 218 214 52 10 346 330 318 313 301 284 277 283 218 189 161 179 176 169 138 136
76 68 82 283 350 134 186 181 192 197 136 156 165 160 143 139 201 183 188 243 217 98 201 220 238 28 6 352 333 320 323 298 289 273 277 270 250 191 179 166 156 138 141 150
56 68 118 323 154 330 38 25 49 47 317 356 253 124 185 111 180 168 234 143 190 241 215 214 71 21 333 333 325 321 325 320 302 285 289 277 190 142 133 140 150 144 147 144
67 336 180 116 89 57 27 357 212 29 314 293 217 185 229 156 181 218 108 224 226 230 270 25 17 345 331 324 322 315 312 294 277 268 259 164 118 128 123 143 148 144 131 136
62 44 131 76 216 130 127 16 68 20 332 294 250 227 186 193 251 180 221 270 244 23 328 325 326 334 325 318 313 296 283 274 272 241 120 112 133 130 120 120 130 127 128 124
74 72 37 12 49 43 40 356 9 336 289 281 296 233 78 94 201 201 23 345 336 318 312 316 319 318 313 303 293 298 306 281 299 117 102 99 112 118 116 121 121 116 110 108